Location: Newark
(13.6797°N, 8.5297°E)
Time: 14:56:23
(UTC+00:00)

Courier 1B Rocket - Pass Details

Date: 19 January 2020
Orbit: 920 x 1202 km, 28.2° (Epoch: 22 February)

Event Time Altitude Azimuth Distance (km) Brightness Sun altitude
Rises 16:56:58 0° 304° (NW) 3,564 8.5 4.3°
Reaches altitude 10° 17:00:01 10° 317° (NW) 2,606 7.6 3.6°
Maximum altitude 17:05:11 27° 13° (NNE) 1,685 6.0 2.4°
Drops below altitude 10° 17:10:25 10° 70° (ENE) 2,626 6.6 1.2°
Sets 17:13:29 0° 82° (E) 3,596 7.3 0.5°
